Regional Weather Roundup
Issued by NWS

Home | Current Version | Previous Version | Graphics & Text | Print | Product List | Glossary On
Versions: 1 2 3 4 5 6 7 8 9 10 11 12 13 14 15 16 17 18 19 20 21 22 23 24 25 26 27 28 29 30 31 32 33 34 35 36 37 38 39 40 41 42 43 44 45 46 47 48 49 50
000
ASUS44 KMEG 301910
RWRTN
TENNESSEE HOURLY STATE WEATHER ROUNDUP
NATIONAL WEATHER SERVICE MEMPHIS TN
200 PM CDT SAT AUG 30 2014

TNZ002-004-019-021-049-052-054-088>092-302000-
WEST TENNESSEE

CITY           SKY/WX    TMP DP  RH WIND       PRES   REMARKS
MEMPHIS INTL   LGT RAIN  78  74  87 CALM      30.03F FOG
NWS MEMPHIS      N/A     78 N/A N/A MISG        N/A
JACKSON        LGT RAIN  79  73  82 S8        30.04F
DYERSBURG      CLOUDY    75  64  69 CALM      30.04F
UNION CITY     MOSUNNY   72  70  94 W7        30.02F
PARIS          SUNNY     77  72  83 S7        30.04F
HUNTINGDON     CLOUDY    78  72  82 S6        30.04F
LEXINGTON      MOSUNNY   77  72  83 S3        30.05F
SAVANNAH       MOSUNNY   81  75  83 E3        30.05F
$$

TNZ008-025-027-028-033-062-065-066-302000-
NORTH MIDDLE TENNESSEE

CITY           SKY/WX    TMP DP  RH WIND       PRES   REMARKS
NASHVILLE      CLOUDY    84  71  65 NW3       30.07F
DICKSON        CLOUDY    75  70  83 CALM      30.07F
CLARKSVILLE    LGT RAIN  76  72  87 S9        30.06F FOG
LEBANON        CLOUDY    83  68  60 CALM      30.07F
SMYRNA         CLOUDY    85  70  60 E5        30.07F
COOKEVILLE     SUNNY     84  72  65 S7        30.10F
GALLATIN       CLOUDY    83  71  66 CALM      30.09F
CROSSVILLE     CLOUDY    80  66  62 S6        30.16F
$$

TNZ061-075-076-078-094-096-097-302000-
SOUTH MIDDLE TENNESSEE

CITY           SKY/WX    TMP DP  RH WIND       PRES   REMARKS
LEWISBURG      CLOUDY    87  69  54 E3        30.06F HX  91
FAYETTEVILLE   MOSUNNY   84  70  61 S6        30.08F
TULLAHOMA      SUNNY     86  70  58 SE8       30.10F HX  90
WINCHESTER     MOSUNNY   88  72  58 S9        30.09F HX  94
MCMINNVILLE    SUNNY     86  73  66 SE3       30.09F HX  93
COLUMBIA         N/A     84  73  70 CALM      30.06F HX  91
SHELBYVILLE    MOSUNNY   88  73  62 VRB3      30.08F HX  96
$$

TNZ017-018-042-046-047-302000-
NORTHEAST TENNESSEE

CITY           SKY/WX    TMP DP  RH WIND       PRES   REMARKS
TRI CITIES     PTSUNNY   91  59  33 CALM      30.15F HX  90
ELIZABETHTON   PTCLDY    88  61  40 SW3       30.15F
$$

TNZ012-013-036-069-073-074-302000-
CENTRAL EAST TENNESSEE

CITY           SKY/WX    TMP DP  RH WIND       PRES   REMARKS
KNOXVILLE      CLOUDY    89  69  51 VRB7      30.09F HX  93
OAK RIDGE      CLOUDY    88  68  51 VRB3      30.13F HX  91
GATLINBURG     CLOUDY    91  66  43 W6        30.10F HX  94
MORRISTOWN     CLEAR     90  66  45 W7        30.14F HX  92
$$

TNZ083-085-099-302000-
SOUTHEAST TENNESSEE

CITY           SKY/WX    TMP DP  RH WIND       PRES   REMARKS
CHATTANOOGA    PTSUNNY   90  69  50 S10       30.09F HX  94
$$

SKY/WX REPORTED AS FAIR MEANS FEW OR NO CLOUDS BELOW
12 THOUSAND FEET.



USA.gov is the U.S. government's official web portal to all federal, state and local government web resources and services.